This is the latest recevied weather packets stored in our database for station/object VK4NB-13. If no packets are shown the sender has not sent any weather packets the latest 10 day(s).
| Time | Temp. | Humidity | Pressure | Rain* | Wind** | Luminosity | Snow |
|---|---|---|---|---|---|---|---|
| 1778024101 | 25° C | 83% | 1016.5 hPa | 0 mm | - | - | - |
| 1778023201 | 25° C | 84% | 1016.3 hPa | 0 mm | - | - | - |
| 1778022322 | 24.44° C | 85% | 1016.2 hPa | 0 mm | - | - | - |
| 1778020802 | 23.33° C | 85% | 1016.1 hPa | 0 mm | - | - | - |
| 1778017801 | 21.67° C | 94% | 1016 hPa | 0 mm | - | - | - |
| 1778015101 | 20.56° C | 97% | 1015.8 hPa | 0 mm | - | - | - |
| 1778013901 | 20.56° C | 96% | 1015.4 hPa | 0 mm | - | - | - |
| 1778012101 | 20.56° C | 97% | 1015.2 hPa | 0 mm | - | - | - |
| 1778011801 | 20° C | 98% | 1015.3 hPa | 0 mm | - | - | - |
| 1778010301 | 20° C | 99% | 1015.1 hPa | 0 mm | - | - | - |
| 1778008801 | 19.44° C | 99% | 1014.7 hPa | 0 mm | - | - | - |
| 1778008501 | 19.44° C | 99% | 1014.8 hPa | 0 mm | - | - | - |
| 1778006701 | 19.44° C | 99% | 1014.5 hPa | 0 mm | - | - | - |
| 1778006401 | 19.44° C | 99% | 1014.4 hPa | 0 mm | - | - | - |
| 1778005222 | 20° C | 99% | 1014.6 hPa | 0 mm | - | - | - |
| 1778003701 | 20° C | 99% | 1014.3 hPa | 0 mm | - | - | - |
| 1778003402 | 20° C | 99% | 1014.3 hPa | 0 mm | - | - | - |
| 1778002202 | 20° C | 99% | 1014.7 hPa | 0 mm | - | - | - |
| 1778001302 | 20° C | 99% | 1014.7 hPa | 0 mm | - | - | - |
| 1778001002 | 20° C | 99% | 1014.7 hPa | 0 mm | - | - | - |
| 1777997402 | 20.56° C | 99% | 1014.9 hPa | 0.25 mm | - | - | - |
| 1777995302 | 20.56° C | 99% | 1015.4 hPa | 0 mm | - | - | - |
| 1777992024 | 21.11° C | 99% | 1015.8 hPa | 0 mm | - | - | - |
| 1777991102 | 20.56° C | 99% | 1015.8 hPa | 0 mm | - | - | - |
| 1777990802 | 20.56° C | 99% | 1015.8 hPa | 0 mm | - | - | - |
* Rain latest hour (hover to see other rain measurements)
** Current wind speed in m/s (hover to see current wind gust speed)